Regional Weather Roundup
Issued by NWS

Home | Current Version | Previous Version | Text Only | Print | Product List | Glossary Off
Versions: 1 2 3 4 5 6 7 8 9 10 11 12 13 14 15 16 17 18 19 20 21 22 23 24 25 26 27 28 29 30 31 32 33 34 35 36 37 38 39 40 41 42 43 44 45 46 47 48 49 50

000
ASUS45 KABQ 292210
RWRNM
WEATHER ROUNDUP FOR NEW MEXICO
NATIONAL WEATHER SERVICE ALBUQUERQUE NM
400 PM MDT TUE JUL 29 2014

NOTE: "FAIR" MEANS FEW OR NO CLOUDS BELOW 12,000 FEET AGL WITH NO
       SIGNIFICANT WEATHER OR OBSTRUCTIONS TO VISION.

      THIS PRODUCT IS RELEASED AS TWO VERSIONS.  ONE VERSION NEAR
      THE TOP OF THE HOUR CONTAINING PRELIMINARY DATA FROM ALBUQUERQUE
      AND OTHER STATIONS.  A FINAL VERSION WITH ADDITIONAL DATA IS
      ISSUED ABOUT 10 MINUTES AFTER THE HOUR.

NMZ501-503-504-510>518-292300-
NORTHWEST PLATEAU/NORTHCENTRAL MOUNTAINS

CITY           SKY/WX    TMP DP  RH WIND       PRES   REMARKS
FARMINGTON     SUNNY     85  51  31 W10       30.17F
LOS ALAMOS     CLOUDY    66  58  76 CALM      30.34F
SANTA FE       PTSUNNY   67  57  70 N7        30.28F
TAOS           PTSUNNY   75  52  43 SW12G18   30.31F
ANGEL FIRE     MOCLDY    67  53  61 SW6       30.40F

$$
NMZ402-403-502-505>509-292300-
WESTCENTRAL MOUNTAINS/SOUTHWEST MOUNTAINS

CITY           SKY/WX    TMP DP  RH WIND       PRES   REMARKS
GALLUP         MOSUNNY   84  46  26 W6G20     30.25F
SILVER CITY    PTSUNNY   86  52  30 SW6G20    30.22F

$$
NMZ407-409-411-412-292300-
SOUTHERN DESERTS

CITY           SKY/WX    TMP DP  RH WIND       PRES   REMARKS
LORDSBURG      FAIR      90  52  27 SW8G20    30.13F
DEMING         PTSUNNY   88  57  34 W8        30.13F
LAS CRUCES     PTSUNNY   89  55  31 CALM      30.15F
HOLLOMAN AFB   MOSUNNY   86  59  39 SE2       30.13F
ALAMOGORDO     MOSUNNY   86  57  37 S6        30.15F
T OR C         LGT RAIN  72  62  71 S7        30.19F

$$
NMZ519>523-292300-
CENTRAL VALLEYS/CENTRAL HIGHLANDS

CITY           SKY/WX    TMP DP  RH WIND       PRES   REMARKS
ALBUQUERQUE    PTSUNNY   83  54  36 S5        30.17F THUNDER
DOUBLE EAGLE   PTSUNNY   81  55  41 NW12      30.23F
MORIARTY ARPT  MOCLDY    78  62  57 SE9       30.27F
CLINES CORNERS PTSUNNY   72  59  63 SW7       30.31F
BELEN          FAIR      86  55  34 SE9G16    30.17F
SOCORRO        FAIR      83  62  48 SE16G22   30.17F

$$
NMZ524>526-539-540-292300-
SOUTHCENTRAL MOUNTAINS

CITY           SKY/WX    TMP DP  RH WIND       PRES   REMARKS
RUIDOSO        MOSUNNY   75  57  53 W5G17     30.34F THUNDER

$$
NMZ527>531-292300-
NORTHEAST HIGHLANDS/NORTHEAST PLAINS

CITY           SKY/WX    TMP DP  RH WIND       PRES   REMARKS
LAS VEGAS      LGT RAIN  65  60  84 SE12      30.29F
RATON          LGT RAIN  71  62  73 SW17      30.24F
CLAYTON        PTSUNNY   81  57  43 S14G26    30.16F

$$
NMZ532>537-292300-
EASTCENTRAL PLAINS

CITY           SKY/WX    TMP DP  RH WIND       PRES   REMARKS
TUCUMCARI      SUNNY     82  61  48 SW10G21   30.14F
CANNON AFB     SUNNY     78  69  75 SW10      30.19F
CLOVIS AIRPORT NOT AVBL

$$
NMZ028-029-538-292300-
SOUTHEAST PLAINS

CITY           SKY/WX    TMP DP  RH WIND       PRES   REMARKS
ROSWELL        MOSUNNY   78  66  66 CALM      30.14F
ARTESIA        SUNNY     86  57  37 S7        30.11F
CARLSBAD       PTSUNNY   93  53  25 CALM      30.07F
HOBBS          MOSUNNY   84  59  42 NE12      30.15F


$$


USA.gov is the U.S. government's official web portal to all federal, state and local government web resources and services.